Weather History for PAMR - June, 2014

Change the Weather History Date:

Friday, June 20, 2014

  Actual Average Record
Temperature  
Mean Temperature 57 °F -  
Max Temperature 69 °F 64 °F 77 °F (2007)
Min Temperature 48 °F 49 °F 46 °F (2006)
Degree Days  
Heating Degree Days 8    
Growing Degree Days 7 (Base 50)    
Moisture  
Dew Point 43 °F    
Average Humidity 58    
Maximum Humidity 80    
Minimum Humidity 44    
Precipitation  
Precipitation 0.12 in - - ()
Sea Level Pressure  
Sea Level Pressure 29.74 in    
Wind  
Wind Speed 6 mph (WSW)    
Max Wind Speed 10 mph    
Max Gust Speed -    
Visibility 10 miles    
Events Rain , Thunderstorm    
Averages and records for this station are not official NWS values.
T = Trace of Precipitation, MM = Missing Value Source: NWS Daily Summary

Daily Weather History Graph

Daily Weather History Graph

Search for Another Location

Airport or City:

Trip Planner

Search our weather history database for the weather conditions in past years. The results will help you decide how hot, cold, wet, or windy it might be!

Date:

Astronomy

Jun. 20, 2014 Rise Set
Actual Time 4:19 AM AKDT 11:42 PM AKDT
Civil Twilight 2:33 AM AKDT 1:28 AM AKDT
Nautical Twilight Sun does not set Sun does not set
Astronomical Twilight Sun does not set Sun does not set
Moon 1:57 AM AKDT (6/20) 3:45 PM AKDT (6/20)
Length of Visible Light 22h 55m
Length of Day
19h 22m
Last Quarter, 39% of the Moon is Illuminated
Jun 20
Last Quarter
Jun 27
New
Jul 5
First Quarter
Jul 12
Full
Jul 18
Last Quarter

Hourly Weather History & Observations

Time (AKDT) Temp. Dew Point Humidity Pressure Visibility Wind Dir Wind Speed Gust Speed Precip Events Conditions
12:53 AM 53.1 °F 41.0 °F 64% 29.83 in 10.0 mi SSW 6.9 mph - N/A   Scattered Clouds
1:53 AM 51.1 °F 41.0 °F 68% 29.83 in 10.0 mi South 5.8 mph - N/A   Scattered Clouds
2:53 AM 50.0 °F 41.0 °F 71% 29.83 in 10.0 mi SSE 3.5 mph - N/A   Mostly Cloudy
3:53 AM 48.9 °F 41.0 °F 74% 29.82 in 10.0 mi South 3.5 mph - N/A   Mostly Cloudy
4:53 AM 48.0 °F 39.9 °F 74% 29.82 in 10.0 mi SSE 3.5 mph - N/A   Mostly Cloudy
6:53 AM 52.0 °F 39.0 °F 61% 29.80 in 10.0 mi Calm Calm - N/A   Partly Cloudy
7:53 AM 53.1 °F 39.0 °F 59% 29.79 in 10.0 mi West 3.5 mph - N/A   Partly Cloudy
8:53 AM 54.0 °F 41.0 °F 62% 29.78 in 10.0 mi WNW 5.8 mph - N/A   Partly Cloudy
9:53 AM 55.0 °F 41.0 °F 59% 29.77 in 10.0 mi West 5.8 mph - N/A   Partly Cloudy
10:53 AM 57.0 °F 41.0 °F 55% 29.76 in 10.0 mi Variable 3.5 mph - N/A   Partly Cloudy
11:53 AM 59.0 °F 42.1 °F 53% 29.75 in 10.0 mi WNW 4.6 mph - N/A   Scattered Clouds
12:53 PM 60.1 °F 43.0 °F 53% 29.73 in 10.0 mi WNW 6.9 mph - N/A   Partly Cloudy
1:53 PM 62.1 °F 45.0 °F 53% 29.71 in 10.0 mi WNW 5.8 mph - N/A   Partly Cloudy
2:53 PM 63.0 °F 46.9 °F 56% 29.70 in 10.0 mi WNW 6.9 mph - N/A   Clear
3:53 PM 64.9 °F 46.9 °F 52% 29.69 in 10.0 mi WNW 6.9 mph - N/A   Partly Cloudy
4:53 PM 66.0 °F 45.0 °F 47% 29.68 in 10.0 mi West 8.1 mph - N/A   Clear
5:53 PM 66.0 °F 44.1 °F 45% 29.68 in 10.0 mi WSW 9.2 mph - N/A   Clear
6:53 PM 66.9 °F 44.1 °F 44% 29.68 in 10.0 mi West 9.2 mph - N/A   Clear
7:53 PM 66.9 °F 45.0 °F 45% 29.67 in 10.0 mi West 10.4 mph - N/A   Clear
8:53 PM 64.0 °F 46.0 °F 52% 29.67 in 10.0 mi NW 6.9 mph - N/A   Clear
9:53 PM 64.9 °F 46.0 °F 50% 29.68 in 10.0 mi SSE 8.1 mph - N/A   Mostly Cloudy
10:43 PM 60.8 °F 46.4 °F 59% 29.69 in 10.0 mi South 5.8 mph - 0.00 in Rain , Thunderstorm Light Thunderstorms and Rain
10:53 PM 59.0 °F 46.0 °F 62% 29.70 in 10.0 mi SE 5.8 mph - 0.01 in Rain , Thunderstorm Light Thunderstorms and Rain
11:53 PM 55.9 °F 50.0 °F 80% 29.72 in 8.0 mi South 3.5 mph - 0.11 in Rain Light Rain